Weather Service Report


269 
ASUS45 KSLC 292010
RWRUT 

UTAH REGIONAL WEATHER ROUNDUP
NATIONAL WEATHER SERVICE SALT LAKE CITY UT
200 PM MDT WED JUN 29 2016

UTZ001>011-023>025-292100-

NORTHERN UTAH
  
CITY           SKY/WX    TMP DP  RH WIND       PRES   REMARKS
BRIGHAM CITY     N/A     92  30  11 W3        30.11F                  
HILL AFB       PTSUNNY   92  42  17 S12G17    30.14F                  
LOGAN          PTSUNNY   90  44  20 CALM      30.12F                  
OGDEN          PTSUNNY   90  42  18 W8        30.11F                  
PROVO AIRPORT  MOSUNNY   90  50  25 VRB7      30.12F                  
SALT LAKE CITY CLOUDY    93  42  17 S12       30.09F                  
VERNAL         SUNNY     88  41  19 W3        30.18F                  
WENDOVER       PTSUNNY   93  39  15 E6        30.08F                  
HEBER CITY     PTSUNNY   86  37  17 CALM      30.20F                  
WEST JORDAN    SUNNY     90  45  20 SE7       30.13F                  

$$

UTZ012>022-026-027-292100-

SOUTHERN/CENTRAL UTAH
  
CITY           SKY/WX    TMP DP  RH WIND       PRES   REMARKS
BLANDING       MOSUNNY   87  42  20 S10G16    30.32F                  
BRYCE CANYON   CLOUDY    79  42  26 VRB6      30.38F                  
CEDAR CITY     SUNNY     91  40  16 S9G18     30.18F                  
DELTA          SUNNY     93  32  11 CALM      30.09F                  
MILFORD        MOSUNNY   97  37  12 S9G23     30.10F HX  92           
MOAB/CYNLANDS  SUNNY     94  41  16 VRB3      30.10F HX  90           
PRICE          PTSUNNY   86  36  16 CALM      30.23F                  
ST GEORGE      MOCLDY    99  46  16 CALM      29.99F HX  95           

$$

REGIONAL REPORTS     COLORADO/ARIZONA
  
CITY           SKY/WX    TMP DP  RH WIND       PRES   REMARKS
CRAIG, CO      CLOUDY    90  37  15 W13G20    30.24F                  
GRAND JUNCTION CLOUDY    91  41  17 W6        30.15F                  
RIFLE          CLOUDY    90  40  17 W18       30.20F                  
MONTROSE       CLOUDY    88  40  18 VRB6      30.23F                  
CORTEZ         CLOUDY    87  43  21 W3        30.25F                  
PAGE, AZ       MOSUNNY   96  43  16 VRB5      30.11F HX  92           
GRAND CANYON   MOSUNNY   84  44  24 N7        30.30F                  
KINGMAN        MOSUNNY  101  45  15 SW17G24   30.04F HX  97           
FLAGSTAFF      CLOUDY    77  49  37 VRB7      30.33F THUNDER          

$$

REGIONAL REPORTS    NEVADA/IDAHO/WYOMING
  
CITY           SKY/WX    TMP DP  RH WIND       PRES   REMARKS
LAS VEGAS, NV  MOSUNNY  105  42  11 SW5       29.87F HX 100           
ELY            CLOUDY    81  41  24 CALM      30.24F                  
ELKO           MOSUNNY   94  37  13 E9        30.12F                  
POCATELLO, ID  CLOUDY    87  54  32 W8        30.11F                  
BURLEY         PTSUNNY   87  51  28 CALM      30.06F                  
EVANSTON, WY   CLOUDY    80  35  19 SW15G24   30.34F                  
ROCK SPRINGS   CLOUDY    86  32  14 W18G26    30.28F                  
KEMMERER         N/A     82  34  17 SW8G18    30.33F                  

$$
  

Return to Home page


Western Regional Climate Center, wrcc@dri.edu